This demonstration page uses our WeatherBlox Daily Observations layout. Learn more.

Left ArrowRight Arrow

44.89941, -97.11507

Hourly Observations for March 26, 2017

Temp ( °F °C ) Dew Point ( °F °C ) Humidity (%) Winds ( mph kmh ) Pressure ( in mb ) Visibility ( mi km ) Precip ( " mm )
12:09 am 00:09 Cloudy with Mist and Fog 35 1.7 35 1.7 100 100 SE 6 9 30.06 1018 2 3 0.00 0.00
12:38 am 00:38 Cloudy with Mist and Fog 35 1.7 35 1.7 100 100 SE 7 11 30.06 1018 2 3 0.00 0.00
12:49 am 00:49 Cloudy with Mist and Fog 36 2 36 2 100 100 SE 5 7 30.06 1018 2 3 0.00 0.00
12:53 am 00:53 Cloudy with Mist and Fog 35 1.7 35 1.7 100 100 SE 6 9 30.01 1016 2 2 0.00 0.00
1:34 am 01:34 Cloudy with Mist and Fog 35 1.7 35 1.7 100 100 ESE 6 9 30.03 1017 1 2 0.00 0.00
1:50 am 01:50 Cloudy with Mist and Fog 36 2 36 2 100 100 ESE 6 9 30.03 1017 2 2 0.00 0.00
1:53 am 01:53 Cloudy with Mist and Fog 35 1.7 35 1.7 100 100 SE 5 7 29.99 1016 2 3 0.00 0.00
2:41 am 02:41 Cloudy with Mist and Fog 35 1.7 35 1.7 100 100 SE 3 6 30.03 1017 3 4 0.00 0.00
2:53 am 02:53 Cloudy with Mist and Fog 35 1.7 35 1.7 100 100 ESE 5 7 29.98 1015 3 5 0.00 0.00
3:51 am 03:51 Cloudy with Mist and Fog 36 2 36 2 100 100 Calm 30.03 1017 6 10 0.00 0.00
3:53 am 03:53 Cloudy with Mist and Fog 35 1.7 35 1.7 100 100 Calm 29.97 1015 6 10 0.00 0.00
4:16 am 04:16 Cloudy with Mist and Fog 35 1.7 34 1.1 96 96 E 3 6 30.00 1016 5 8 0.00 0.00
4:41 am 04:41 Cloudy 35 1.7 34 1.1 96 96 E 3 6 30.00 1016 7 11 0.00 0.00
4:53 am 04:53 Cloudy 35 1.7 34 1.1 96 96 Calm 29.96 1015 7 11 0.00 0.00
5:50 am 05:50 Cloudy with Mist and Fog 34 1 34 1 100 100 N 3 6 30.00 1016 2 3 0.00 0.00
5:53 am 05:53 Cloudy with Mist and Fog 34 1.1 34 1.1 100 100 N 5 7 29.97 1015 1 2 0.00 0.00
6:01 am 06:01 Cloudy with Fog 34 1.1 34 1.1 100 100 N 3 6 30.03 1017 1 1 0.00 0.00
6:53 am 06:53 Cloudy with Mist and Fog 34 1.1 33 0.6 97 97 ENE 5 7 29.98 1015 1 2 0.00 0.00
7:00 am 07:00 Cloudy with Mist and Fog 34 1.1 33 0.6 97 97 ENE 5 7 30.03 1017 2 3 0.00 0.00
7:10 am 07:10 Cloudy with Mist and Fog 34 1.1 34 1.1 100 100 ENE 3 6 30.03 1017 4 6 0.00 0.00
7:53 am 07:53 Cloudy with Mist and Fog 34 1.1 34 1.1 100 100 NE 5 7 29.98 1015 4 6 0.00 0.00
8:17 am 08:17 Cloudy with Mist and Fog 35 1.7 34 1.1 96 96 NE 3 6 30.03 1017 5 8 0.00 0.00
8:31 am 08:31 Cloudy with Mist and Fog 35 1.7 34 1.1 96 96 NE 3 6 30.03 1017 6 10 0.00 0.00
8:40 am 08:40 Cloudy 36 2.2 34 1.1 93 93 NE 5 7 30.03 1017 7 11 0.00 0.00
8:53 am 08:53 Cloudy 36 2.2 34 1.1 93 93 NE 5 7 29.98 1015 8 13 0.00 0.00
9:53 am 09:53 Cloudy 37 2.8 35 1.7 93 93 ENE 5 7 29.98 1015 10 16 0.00 0.00
10:53 am 10:53 Cloudy 38 3.3 35 1.7 89 89 NE 6 9 29.98 1015 10 16 0.00 0.00
11:53 am 11:53 Cloudy 38 3.3 35 1.7 89 89 ENE 7 11 29.98 1015 10 16 0.00 0.00
12:53 pm 12:53 Cloudy 39 3.9 36 2.2 89 89 E 5 7 29.97 1015 10 16 0.00 0.00
1:53 pm 13:53 Cloudy 41 5 36 2.2 82 82 NE 3 6 29.97 1015 10 16 0.00 0.00
2:20 pm 14:20 Cloudy 41 5 36 2.2 82 82 NE 3 6 30.00 1016 10 16 0.00 0.00
2:53 pm 14:53 Cloudy 41 5 36 2.2 82 82 Calm 29.97 1015 10 16 0.00 0.00
3:09 pm 15:09 Cloudy 43 6.1 37 2.8 80 80 Calm 29.97 1015 10 16 0.00 0.00
3:24 pm 15:24 Cloudy 43 6.1 37 2.8 80 80 Calm 29.97 1015 10 16 0.00 0.00
3:32 pm 15:32 Cloudy 43 6.1 37 2.8 80 80 Calm 29.97 1015 10 16 0.00 0.00
3:53 pm 15:53 Cloudy 44 6.7 37 2.8 76 76 VRB 7 11 29.96 1015 10 16 0.00 0.00
4:02 pm 16:02 Cloudy 44 6.7 37 2.8 76 76 WNW 7 11 29.94 1014 10 16 0.00 0.00
4:14 pm 16:14 Cloudy 45 7.2 37 2.8 74 74 NW 6 9 29.94 1014 10 16 0.00 0.00
4:51 pm 16:51 Partly Cloudy 45 7 37 3 76 76 W 5 7 29.94 1014 10 16 0.00 0.00
4:53 pm 16:53 Partly Cloudy 44 6.7 37 2.8 76 76 W 6 9 29.96 1014 10 16 0.00 0.00
5:53 pm 17:53 Cloudy 44 6.7 37 2.8 76 76 N 5 7 29.96 1015 10 16 0.00 0.00
6:53 pm 18:53 Cloudy 44 6.7 37 2.8 76 76 NW 5 7 29.96 1015 10 16 0.00 0.00
7:53 pm 19:53 Cloudy 42 5.6 37 2.8 82 82 Calm 29.96 1015 10 16 0.00 0.00
8:53 pm 20:53 Mostly Cloudy 39 3.9 35 1.7 86 86 Calm 29.96 1015 10 16 0.00 0.00
9:53 pm 21:53 Clear 34 1.1 33 0.6 97 97 Calm 29.98 1015 10 16 0.00 0.00
10:53 pm 22:53 Mostly Cloudy 36 2.2 35 1.7 97 97 SSE 3 6 29.98 1015 10 16 0.00 0.00
11:53 pm 23:53 Mostly Cloudy 37 2.8 35 1.7 93 93 SSE 6 9 29.98 1015 10 16 0.00 0.00

Powered by AerisWeather